When you browse on this site, cookies collect data to enhance your experience and personalize the content and advertising you see.
Visit our Privacy Policy to learn more. By continuing to use the site, you agree to this use of cookies and data.
  • In Schweiz
  • Länderverzeichnis
  • Für 7 Tage
  • Wassertemperatur
  • Wetterkarte
  • Widgets
  • user-avatar
    Anmelden

    Stündliche Wetter Pinneberg

    Heute, 7 Juni, Sonntag

    Zeit Temperatur Niederschläge Wind Luftdruck Luftfeuchtigkeit
    00:00 +8°C° 0 mm 3 m/S 750 mmHg 87%
    01:00 +7°C° 0 mm 3 m/S 750 mmHg 89%
    02:00 +7°C° 0 mm 3 m/S 750 mmHg 89%
    03:00 +7°C° 0 mm 3 m/S 750 mmHg 89%
    04:00 +5°C° 0 mm 3 m/S 750 mmHg 89%
    05:00 +8°C° 0 mm 3 m/S 750 mmHg 84%
    06:00 +10°C° 0 mm 4 m/S 750 mmHg 80%
    07:00 +11°C° 0 mm 4 m/S 750 mmHg 75%
    08:00 +12°C° 0.1 mm 4 m/S 750 mmHg 72%
    09:00 +13°C° 0.1 mm 5 m/S 750 mmHg 69%
    10:00 +14°C° 0.1 mm 5 m/S 750 mmHg 66%
    11:00 +15°C° 0.5 mm 6 m/S 751 mmHg 66%
    12:00 +15°C° 0.5 mm 6 m/S 751 mmHg 66%
    13:00 +16°C° 0.5 mm 6 m/S 751 mmHg 66%
    14:00 +16°C° 0.5 mm 6 m/S 751 mmHg 68%
    15:00 +16°C° 0.5 mm 7 m/S 752 mmHg 70%
    16:00 +16°C° 0.5 mm 7 m/S 752 mmHg 72%
    17:00 +15°C° 0.1 mm 6 m/S 752 mmHg 74%
    18:00 +14°C° 0.1 mm 5 m/S 753 mmHg 76%
    19:00 +14°C° 0.1 mm 4 m/S 753 mmHg 78%
    20:00 +12°C° 0 mm 3 m/S 754 mmHg 84%
    21:00 +11°C° 0 mm 3 m/S 754 mmHg 90%
    22:00 +9°C° 0 mm 2 m/S 755 mmHg 96%
    23:00 +9°C° 0 mm 2 m/S 755 mmHg 96%

    Morgen, 8 Juni, Montag

    Zeit Temperatur Niederschläge Wind Luftdruck Luftfeuchtigkeit
    00:00 +8°C° 0 mm 2 m/S 755 mmHg 96%
    01:00 +8°C° 0 mm 2 m/S 755 mmHg 96%
    02:00 +7°C° 0 mm 2 m/S 756 mmHg 96%
    03:00 +7°C° 0 mm 2 m/S 756 mmHg 96%
    04:00 +7°C° 0 mm 2 m/S 756 mmHg 96%
    05:00 +8°C° 0 mm 2 m/S 756 mmHg 91%
    06:00 +10°C° 0 mm 2 m/S 756 mmHg 87%
    07:00 +12°C° 0 mm 2 m/S 757 mmHg 83%
    08:00 +14°C° 0 mm 2 m/S 757 mmHg 75%
    09:00 +15°C° 0 mm 2 m/S 757 mmHg 68%
    10:00 +17°C° 0 mm 2 m/S 758 mmHg 60%
    11:00 +17°C° 0 mm 3 m/S 758 mmHg 58%
    12:00 +18°C° 0 mm 3 m/S 758 mmHg 56%
    13:00 +19°C° 0 mm 3 m/S 757 mmHg 53%
    14:00 +19°C° 0.1 mm 3 m/S 758 mmHg 56%
    15:00 +18°C° 0.1 mm 3 m/S 758 mmHg 59%
    16:00 +18°C° 0.1 mm 3 m/S 758 mmHg 62%
    17:00 +17°C° 0.1 mm 3 m/S 758 mmHg 67%
    18:00 +16°C° 0.1 mm 3 m/S 758 mmHg 72%
    19:00 +14°C° 0.1 mm 3 m/S 758 mmHg 77%
    20:00 +13°C° 0 mm 3 m/S 759 mmHg 82%
    21:00 +12°C° 0 mm 2 m/S 759 mmHg 87%
    22:00 +9°C° 0 mm 2 m/S 760 mmHg 91%
    23:00 +8°C° 0 mm 2 m/S 760 mmHg 92%

    übermorgen, 9 Juni, Dienstag

    Zeit Temperatur Niederschläge Wind Luftdruck Luftfeuchtigkeit
    00:00 +8°C° 0 mm 2 m/S 760 mmHg 93%
    01:00 +7°C° 0 mm 2 m/S 760 mmHg 94%
    02:00 +7°C° 0 mm 2 m/S 760 mmHg 94%
    03:00 +7°C° 0 mm 1 m/S 760 mmHg 94%
    04:00 +7°C° 0 mm 1 m/S 760 mmHg 94%
    05:00 +9°C° 0 mm 1 m/S 760 mmHg 87%
    06:00 +10°C° 0 mm 1 m/S 761 mmHg 80%
    07:00 +12°C° 0 mm 2 m/S 761 mmHg 73%
    08:00 +13°C° 0 mm 2 m/S 761 mmHg 69%
    09:00 +15°C° 0 mm 1 m/S 761 mmHg 64%
    10:00 +16°C° 0 mm 1 m/S 762 mmHg 60%
    11:00 +17°C° 0 mm 2 m/S 762 mmHg 60%
    12:00 +17°C° 0 mm 2 m/S 762 mmHg 60%
    13:00 +17°C° 0 mm 2 m/S 761 mmHg 60%
    14:00 +17°C° 0 mm 2 m/S 761 mmHg 60%
    15:00 +18°C° 0 mm 3 m/S 761 mmHg 61%
    16:00 +18°C° 0 mm 3 m/S 761 mmHg 61%
    17:00 +17°C° 0 mm 3 m/S 761 mmHg 65%
    18:00 +16°C° 0 mm 3 m/S 761 mmHg 69%
    19:00 +14°C° 0 mm 3 m/S 761 mmHg 73%
    20:00 +14°C° 0 mm 2 m/S 762 mmHg 76%
    21:00 +12°C° 0 mm 2 m/S 762 mmHg 79%
    22:00 +10°C° 0 mm 2 m/S 762 mmHg 82%
    23:00 +10°C° 0 mm 2 m/S 762 mmHg 81%

    10 Juni, Mittwoch

    Zeit Temperatur Niederschläge Wind Luftdruck Luftfeuchtigkeit
    00:00 +10°C° 0 mm 2 m/S 762 mmHg 81%
    01:00 +10°C° 0 mm 2 m/S 762 mmHg 80%
    02:00 +10°C° 0 mm 2 m/S 762 mmHg 80%
    03:00 +10°C° 0 mm 2 m/S 762 mmHg 79%
    04:00 +10°C° 0 mm 2 m/S 762 mmHg 79%
    05:00 +10°C° 0 mm 2 m/S 762 mmHg 79%
    06:00 +12°C° 0 mm 2 m/S 762 mmHg 78%
    07:00 +12°C° 0 mm 2 m/S 762 mmHg 78%
    08:00 +13°C° 0 mm 2 m/S 762 mmHg 77%
    09:00 +14°C° 0 mm 2 m/S 762 mmHg 77%
    10:00 +15°C° 0 mm 2 m/S 762 mmHg 76%
    11:00 +15°C° 0 mm 2 m/S 762 mmHg 75%
    12:00 +16°C° 0 mm 2 m/S 761 mmHg 75%
    13:00 +16°C° 0 mm 2 m/S 761 mmHg 74%
    14:00 +17°C° 0 mm 3 m/S 761 mmHg 72%
    15:00 +18°C° 0 mm 3 m/S 761 mmHg 69%
    16:00 +19°C° 0 mm 3 m/S 760 mmHg 67%
    17:00 +18°C° 0 mm 3 m/S 760 mmHg 69%
    18:00 +18°C° 0 mm 4 m/S 760 mmHg 72%
    19:00 +17°C° 0 mm 4 m/S 760 mmHg 75%
    20:00 +14°C° 0 mm 3 m/S 760 mmHg 81%
    21:00 +12°C° 0 mm 3 m/S 760 mmHg 87%
    22:00 +10°C° 0 mm 2 m/S 760 mmHg 93%
    23:00 +10°C° 0 mm 2 m/S 760 mmHg 93%

    11 Juni, Donnerstag

    Zeit Temperatur Niederschläge Wind Luftdruck Luftfeuchtigkeit
    00:00 +10°C° 0 mm 2 m/S 760 mmHg 94%
    01:00 +9°C° 0 mm 2 m/S 760 mmHg 94%
    02:00 +9°C° 0 mm 2 m/S 759 mmHg 93%
    03:00 +9°C° 0 mm 2 m/S 759 mmHg 92%
    04:00 +9°C° 0 mm 2 m/S 759 mmHg 91%
    05:00 +10°C° 0 mm 2 m/S 759 mmHg 87%
    06:00 +12°C° 0 mm 2 m/S 759 mmHg 84%
    07:00 +13°C° 0 mm 3 m/S 759 mmHg 80%
    08:00 +14°C° 0 mm 3 m/S 759 mmHg 78%
    09:00 +17°C° 0 mm 2 m/S 758 mmHg 75%
    10:00 +18°C° 0 mm 2 m/S 758 mmHg 72%
    11:00 +18°C° 0.1 mm 2 m/S 758 mmHg 77%
    12:00 +18°C° 0.1 mm 2 m/S 758 mmHg 81%
    13:00 +18°C° 0.1 mm 2 m/S 757 mmHg 85%
    14:00 +18°C° 0.2 mm 2 m/S 757 mmHg 85%
    15:00 +18°C° 0.2 mm 2 m/S 757 mmHg 85%
    16:00 +19°C° 0.2 mm 2 m/S 756 mmHg 84%
    17:00 +18°C° 0.1 mm 2 m/S 756 mmHg 86%
    18:00 +17°C° 0.1 mm 2 m/S 756 mmHg 88%
    19:00 +17°C° 0.1 mm 2 m/S 756 mmHg 89%
    20:00 +16°C° 0 mm 1 m/S 756 mmHg 91%
    21:00 +15°C° 0 mm 1 m/S 756 mmHg 93%
    22:00 +14°C° 0 mm 1 m/S 756 mmHg 94%
    23:00 +14°C° 0 mm 1 m/S 756 mmHg 95%

    12 Juni, Freitag

    Zeit Temperatur Niederschläge Wind Luftdruck Luftfeuchtigkeit
    00:00 +14°C° 0 mm 1 m/S 755 mmHg 95%
    01:00 +13°C° 0 mm 1 m/S 755 mmHg 95%
    02:00 +13°C° 0 mm 1 m/S 755 mmHg 95%
    03:00 +13°C° 0 mm 1 m/S 755 mmHg 96%
    04:00 +13°C° 0 mm 1 m/S 755 mmHg 96%
    05:00 +14°C° 0 mm 1 m/S 755 mmHg 93%
    06:00 +15°C° 0 mm 1 m/S 755 mmHg 90%
    07:00 +18°C° 0 mm 1 m/S 755 mmHg 88%
    08:00 +18°C° 0 mm 2 m/S 755 mmHg 82%
    09:00 +20°C° 0 mm 2 m/S 755 mmHg 77%
    10:00 +21°C° 0 mm 2 m/S 755 mmHg 72%
    11:00 +21°C° 0.1 mm 2 m/S 754 mmHg 70%
    12:00 +23°C° 0.1 mm 2 m/S 754 mmHg 69%
    13:00 +23°C° 0.1 mm 2 m/S 754 mmHg 67%
    14:00 +24°C° 0.1 mm 2 m/S 754 mmHg 66%
    15:00 +24°C° 0.1 mm 2 m/S 754 mmHg 65%
    16:00 +24°C° 0.1 mm 2 m/S 754 mmHg 64%
    17:00 +24°C° 0.1 mm 2 m/S 754 mmHg 70%
    18:00 +23°C° 0.1 mm 2 m/S 753 mmHg 75%
    19:00 +21°C° 0.1 mm 3 m/S 753 mmHg 81%
    20:00 +20°C° 0.1 mm 3 m/S 754 mmHg 86%
    21:00 +19°C° 0.1 mm 3 m/S 754 mmHg 90%
    22:00 +17°C° 0.1 mm 3 m/S 754 mmHg 95%
    23:00 +17°C° 0 mm 3 m/S 754 mmHg 96%
    Mehr zeigen